Content
SEND FEEDBACK

Daily
Averages
Monthly
Summary
United States of America

SOUTHPORT, NORTH CAROLINA


Home > North America > United States > North Carolina
Elevation: 38 feet     Latitude: 34 00N     Longitude: 078 01W

WEATHER
 
SELECT A DAY
Number of Records: 131,269;   Date Range: 8/21/01 - 4/15/14
 
SHARE

PRINT THIS DATA

[ ← Previous Day ]
WEATHER ALMANAC - SEPTEMBER 8, 2013
[ Next Day → ]
[ °C ]   °F
Weather ElementAverageHighLow
Temperature75.8 °F84.7 °F (2:35 pm)64 °F (6:35 am)
Dewpoint66.4 °F70 °F (9:35 pm)61.7 °F (6:15 am)
Humidity73.8 %93 % (4:55 am)57 % (2:35 pm)
Barometer29.96 in30.01 in (12:35 am)29.91 in (3:55 pm)
Wind Speed4.4 mph10.4 mph (2:35 pm)
Weather ElementAverage
Visibility10 mi
Wind DirectionSSE (152 °)

Weather ElementTotal
Precipitation---
Cooling Degree Days9.3 (Base 65)
Growing Degree Days24.4 (Base 50)
Averaged from 71 records on September 8, 2013
WEATHER CONDITIONS BREAKOUT
WIND DIRECTION BREAKOUT
WEATHER BY HOUR - SEPTEMBER 8, 2013
[ °C ]   °F
Local TimeTemperatureDewpointHumidityBarometerVisibilityWind DirectionWind SpeedGust SpeedPrecipitationEventsConditions
12:35 AM67.3 °F63.1 °F87 %30.01 in10.0 miCalmClear
12:55 AM67.1 °F63.5 °F88 %30.00 in10.0 miCalmClear
1:15 AM67.1 °F63.9 °F89 %30.00 in10.0 miCalmClear
1:35 AM66.7 °F63.5 °F89 %30.00 in10.0 miCalmClear
1:55 AM66.2 °F63.3 °F90 %29.99 in10.0 miCalmClear
2:15 AM66.4 °F63.3 °F90 %29.99 in10.0 miCalmClear
2:35 AM65.7 °F63.0 °F91 %29.98 in10.0 miCalmClear
2:55 AM65.3 °F62.8 °F92 %29.98 in10.0 miCalmClear
3:15 AM65.7 °F62.8 °F90 %29.98 in10.0 miCalmClear
3:35 AM65.3 °F62.8 °F92 %29.97 in10.0 miCalmClear
3:55 AM65.3 °F62.8 °F92 %29.97 in10.0 miCalmClear
4:15 AM65.3 °F62.6 °F91 %29.97 in10.0 miCalmClear
4:35 AM65.3 °F62.8 °F92 %29.97 in10.0 miCalmClear
4:55 AM64.8 °F62.6 °F93 %29.97 in10.0 miCalmClear
5:15 AM64.4 °F62.2 °F93 %29.96 in10.0 miCalmClear
5:35 AM64.4 °F62.2 °F93 %29.96 in10.0 miCalmClear
5:55 AM64.2 °F61.9 °F92 %29.96 in10.0 miCalmClear
6:15 AM64.2 °F61.7 °F91 %29.98 in10.0 miCalmClear
6:35 AM64.0 °F61.7 °F92 %29.98 in10.0 miCalmClear
6:55 AM64.2 °F61.7 °F91 %29.98 in10.0 miCalmClear
7:15 AM64.0 °F61.7 °F92 %29.99 in10.0 miCalmClear
7:35 AM66.0 °F62.2 °F88 %29.99 in10.0 miCalmClear
7:55 AM68.2 °F63.9 °F86 %29.99 in10.0 miNNW (330°)3.5 mphClear
8:15 AM69.6 °F64.4 °F83 %29.99 in10.0 miNNW (330°)3.5 mphClear
8:35 AM71.4 °F65.1 °F80 %29.99 in10.0 miCalmClear
8:55 AM73.4 °F65.5 °F76 %29.99 in10.0 miCalmClear
9:15 AM76.1 °F66.2 °F71 %29.99 in10.0 miWest (270°)4.6 mphClear
9:35 AM77.4 °F66.4 °F69 %29.98 in10.0 miWest (270°)4.6 mphClear
9:55 AM79.5 °F66.7 °F65 %29.98 in10.0 miWest (270°)6.9 mphClear
10:15 AM81.0 °F66.7 °F62 %29.98 in10.0 miWSW (240°)6.9 mphClear
10:35 AM81.3 °F67.1 °F62 %29.98 in10.0 miWSW (240°)5.8 mphClear
10:55 AM81.5 °F67.8 °F63 %29.98 in10.0 miSW (230°)8.1 mphClear
11:15 AM82.2 °F68.0 °F62 %29.97 in10.0 miSW (230°)8.1 mphClear
11:35 AM82.8 °F67.3 °F59 %29.98 in10.0 miWSW (240°)6.9 mphClear
11:55 AM83.1 °F66.7 °F58 %29.97 in10.0 miWSW (240°)8.1 mphClear
12:15 PM83.1 °F67.1 °F58 %29.97 in10.0 miWSW (240°)5.8 mphClear
12:35 PM83.3 °F67.3 °F58 %29.96 in10.0 miSSW (210°)6.9 mphClear
12:55 PM83.7 °F67.5 °F58 %29.96 in10.0 miSSW (210°)8.1 mphClear
1:15 PM83.7 °F67.8 °F59 %29.96 in10.0 miSSW (200°)8.1 mphClear
1:35 PM83.5 °F68.0 °F59 %29.95 in10.0 miSW (220°)6.9 mphClear
1:55 PM84.0 °F68.4 °F59 %29.95 in10.0 miSW (220°)6.9 mphClear
2:15 PM84.2 °F68.4 °F59 %29.94 in10.0 miSW (230°)8.1 mphClear
2:35 PM84.7 °F68.2 °F57 %29.93 in10.0 miSW (230°)10.4 mphClear
2:55 PM84.7 °F68.5 °F58 %29.93 in10.0 miSW (220°)8.1 mphClear
3:15 PM84.4 °F68.5 °F59 %29.93 in10.0 miSW (230°)10.4 mphClear
3:35 PM84.0 °F68.2 °F59 %29.92 in10.0 miSW (220°)9.2 mphClear
3:55 PM84.0 °F68.5 °F60 %29.91 in10.0 miSW (220°)6.9 mphClear
4:15 PM83.7 °F68.9 °F61 %29.91 in10.0 miSSW (200°)8.1 mphClear
4:35 PM83.7 °F69.1 °F61 %29.91 in10.0 miSouth (190°)9.2 mphClear
4:55 PM82.9 °F68.9 °F62 %29.92 in10.0 miSW (220°)8.1 mphClear
5:15 PM82.9 °F68.9 °F62 %29.92 in10.0 miSW (220°)8.1 mphClear
5:35 PM82.6 °F69.1 °F64 %29.92 in10.0 miSW (230°)8.1 mphClear
5:55 PM82.0 °F67.6 °F62 %29.92 in10.0 miSW (220°)6.9 mphClear
6:15 PM81.7 °F68.7 °F65 %29.92 in10.0 miSW (220°)8.1 mphClear
6:35 PM81.1 °F68.4 °F65 %29.92 in10.0 miSW (220°)4.6 mphClear
6:55 PM80.2 °F68.9 °F68 %29.93 in10.0 miSW (220°)6.9 mphScattered Clouds
7:15 PM79.7 °F69.1 °F70 %29.93 in10.0 miSW (220°)4.6 mphScattered Clouds
7:35 PM79.3 °F68.9 °F70 %29.93 in10.0 miSW (230°)6.9 mphClear
7:55 PM79.3 °F69.3 °F71 %29.94 in10.0 miSW (220°)4.6 mphClear
8:15 PM79.3 °F69.1 °F71 %29.94 in10.0 miSW (220°)4.6 mphScattered Clouds
8:35 PM79.3 °F69.3 °F71 %29.95 in10.0 miSW (220°)5.8 mphScattered Clouds
8:55 PM79.3 °F69.1 °F71 %29.95 in10.0 miSW (220°)5.8 mphClear
9:15 PM79.3 °F69.4 °F72 %29.96 in10.0 miSW (220°)6.9 mphClear
9:35 PM79.3 °F70.0 °F73 %29.97 in10.0 miSW (220°)5.8 mphClear
9:55 PM79.3 °F69.6 °F72 %29.97 in10.0 miSW (220°)5.8 mphClear
10:15 PM79.3 °F69.8 °F72 %29.98 in10.0 miSW (220°)6.9 mphClear
10:35 PM79.3 °F69.4 °F72 %29.98 in10.0 miSW (220°)5.8 mphClear
10:55 PM79.2 °F69.8 °F73 %29.98 in10.0 miSW (220°)5.8 mphClear
11:15 PM78.3 °F69.1 °F73 %29.98 in10.0 miSW (220°)4.6 mphClear
11:35 PM79.0 °F69.3 °F72 %29.99 in10.0 miSW (220°)4.6 mphClear
11:55 PM78.6 °F69.3 °F73 %29.99 in10.0 miSW (220°)3.5 mphClear
Hourly data recorded from KSUT, located 5.91 miles away from Southport, North Carolina







STORIES FROM OUR PARTNERS